Flag for U.S.A. Weather past 2 weeks in Plano, Texas, U.S.A.

Now
74 °F

Clear.


Feels Like: 73 °F
Forecast: 79 / 100 °F
Wind: 3 mph from Northeast

Location: McKinney Municipal Airport

Current Time: Jul 30, 2015 at 7:22:38 AM

Latest Report: Jul 30, 2015 at 6:53 AM


Visibility: 10 mi

Pressure: 30.04 "Hg

Humidity: 85%

Dew point: 69 °F

Location of PlanoLocation

Historic Weather in Plano — Graph

°F

Plano temperature yesterday

Maximum temperature yesterday: 98 °F (at 3:53 PM)
Minimum temperature yesterday: 75 °F (at 5:53 AM)
Average temperature yesterday: 87 °F

Past Weeks' High & Low Weather Summary

 TemperatureHumidityPressure
High98 °F (Jul 23, 3:53 PM)88% (Jul 25, 5:53 AM)30.03 "Hg (Jul 25, 5:53 AM)
Low73 °F (Jul 30, 5:53 AM)28% (Jul 29, 3:53 PM)29.78 "Hg (Jul 21, 6:53 PM)
Average86 °F59%29.91 "Hg
* Reported Jul 15 5:53 AM — Jul 30 5:53 AM, Plano, Weather by CustomWeather, © 2015

Note: Actual official high and low records may vary slightly from our data, if they occured in-between our weather recording intervals... More about our weather records

Advertising

Plano weather history for previous 24 hours

 ConditionsComfort  
Time TempWeatherWind HumidityBarometerVisibility
5:53 AM
Thu, Jul 30
73 °FClear.No wind88%30.03 "Hg10 mi
4:53 AM76 °FClear.No wind72%30.03 "Hg10 mi
3:53 AM76 °FClear.No wind80%30.02 "Hg10 mi
2:53 AM76 °FClear.No wind77%30.02 "Hg10 mi
1:53 AM79 °FClear.No wind62%30.02 "Hg10 mi
12:53 AM79 °FClear.No wind69%30.03 "Hg10 mi
11:53 PM
Wed, Jul 29
83 °FClear.No wind57%30.02 "Hg10 mi
10:53 PM85 °FClear.No wind51%30.01 "Hg10 mi
9:53 PM87 °FClear.5 mph46%29.99 "Hg10 mi
8:53 PM90 °FSunny.7 mph43%29.97 "Hg10 mi
7:53 PM94 °FSunny.6 mph38%29.95 "Hg10 mi
6:53 PM97 °FSunny.8 mph33%29.95 "Hg10 mi
5:53 PM98 °FSunny.9 mph32%29.95 "Hg10 mi
4:53 PM98 °FSunny.6 mph31%29.97 "Hg10 mi
3:53 PM98 °FSunny.9 mph28%29.99 "Hg10 mi
2:53 PM96 °FSunny.8 mph38%30.00 "Hg10 mi
1:53 PM95 °FSunny.8 mph44%30.01 "Hg10 mi
12:53 PM94 °FSunny.7 mph48%30.02 "Hg10 mi
11:53 AM92 °FSunny.3 mph51%30.03 "Hg10 mi
10:53 AM90 °FSunny.6 mph52%30.03 "Hg10 mi
9:53 AM87 °FSunny.6 mph55%30.02 "Hg10 mi
8:53 AM84 °FSunny.7 mph65%30.02 "Hg10 mi
7:53 AM79 °FSunny.6 mph74%30.01 "Hg10 mi
Weather by CustomWeather, © 2015

See weather overviewHow to use our weather pages